Temperature
24 23 23 23 25 25 28 31 32 31 31 31 31 31 30 29 27 25 25 24 22 22 22 22 21 21 20 20 19 19 19 19 19 18 18 18 18 18 18 18 18 18 18 18 18 18 18 18 18
24 23 25 26 26 27 29 31 31 31 31 31 31 30 30 28 27 26 25 24 22 22 22 22 21 21 20 20 20 19 19 19 19 18 18 18 18 18 18 18 18 18 18 18 18 18 18 18 18
24 24 27 28 27 29 30 32 32 32 31 31 31 30 29 28 27 26 24 23 22 21 21 22 21 21 20 20 20 19 19 19 19 18 18 18 18 18 18 18 18 18 18 18 18 18 18 18 18
24 26 28 28 29 32 32 33 33 32 31 31 30 29 28 27 27 25 24 23 21 20 21 22 21 21 20 20 20 19 19 19 19 18 18 18 18 18 18 18 18 18 18 18 18 18 18 18 18
26 28 28 28 31 33 34 33 33 32 32 31 30 29 26 26 26 25 24 23 22 20 21 21 21 21 20 20 20 19 19 19 18 18 18 18 18 18 18 18 18 18 18 18 18 18 18 18 18
28 30 28 29 31 33 34 33 33 32 32 31 31 29 26 25 25 24 24 23 22 21 20 21 21 20 20 20 19 19 19 19 18 18 18 18 18 18 18 18 18 18 18 18 18 18 18 18 18
29 29 29 31 32 33 34 33 33 32 32 31 30 29 25 25 25 24 24 23 22 21 20 21 21 20 20 20 19 19 19 19 18 18 18 18 18 18 18 18 18 18 18 18 18 18 18 18 18
29 30 30 31 32 33 34 33 33 32 32 31 30 28 25 24 24 24 23 23 22 20 20 21 20 20 20 19 19 19 19 19 18 18 18 18 18 18 18 18 18 18 18 18 18 18 18 18 18
30 30 30 31 33 33 34 34 33 32 32 30 29 27 26 25 24 23 23 22 22 20 20 20 19 19 19 19 19 19 19 19 19 18 18 18 18 18 18 18 18 18 18 18 18 18 18 18 18
31 30 31 33 34 34 34 33 33 33 32 30 28 26 25 24 24 23 23 22 21 20 20 20 19 19 19 18 19 19 18 18 18 18 18 18 17 17 17 18 18 18 18 18 18 18 18 18 18
32 32 33 34 34 34 34 33 33 33 32 31 28 26 25 25 24 23 23 22 22 21 20 20 19 19 19 18 19 18 18 18 18 18 18 18 18 17 18 18 18 18 18 17 18 18 17 17 17
32 33 33 34 33 33 33 33 33 32 31 30 29 27 25 25 24 23 23 22 21 21 20 20 19 19 19 18 18 18 18 18 18 18 18 18 18 18 18 18 18 17 17 17 17 17 17 17 17
33 33 33 33 33 33 33 33 32 31 30 29 28 27 25 24 24 23 22 22 21 20 20 20 19 19 19 18 18 18 18 18 18 18 18 18 18 18 18 18 18 17 17 17 17 17 17 17 17
33 33 33 33 33 33 33 33 31 29 29 29 28 27 25 24 24 22 22 21 21 20 20 19 19 19 18 18 18 18 18 18 18 18 18 18 18 18 18 18 18 17 17 17 17 17 17 17 17
32 32 33 33 33 34 33 32 30 29 29 29 28 26 25 24 23 22 21 21 20 20 19 19 19 18 18 18 18 18 18 18 18 18 18 18 18 18 17 17 17 17 17 17 17 17 17 17 17
32 32 31 32 33 34 33 31 31 29 30 30 28 26 25 24 23 22 21 20 20 19 19 19 18 18 18 18 18 18 18 18 18 18 18 18 17 18 17 17 17 17 17 17 17 17 17 17 17
31 31 31 32 34 34 33 32 31 31 31 30 28 26 24 23 23 22 21 20 19 19 19 18 18 18 18 18 18 18 18 18 18 18 17 18 17 17 17 17 17 17 17 17 17 17 17 17 17
30 31 31 32 33 33 33 32 32 31 31 30 28 26 25 23 22 21 20 19 19 18 18 18 18 18 18 18 18 18 18 18 18 17 17 17 17 17 17 17 17 17 17 17 17 17 17 17 17
32 32 32 32 34 33 32 32 32 32 31 30 28 27 25 23 22 21 20 19 18 18 18 18 17 17 17 17 18 18 17 17 17 17 17 17 17 17 17 17 17 17 17 17 17 17 17 17 17
32 31 31 32 33 33 32 32 32 31 30 29 28 27 25 23 22 20 19 19 18 18 18 18 17 17 17 17 17 17 17 17 17 17 17 17 17 17 17 17 17 17 17 17 16 16 17 17 17
31 31 31 32 32 33 32 31 30 29 29 29 28 27 26 24 22 21 19 19 18 18 18 17 17 17 17 17 17 17 17 17 17 17 17 17 17 17 17 17 17 17 17 16 16 16 17 17 17
31 32 32 32 31 31 31 29 28 28 28 28 28 27 26 24 23 21 20 19 18 18 18 17 17 17 17 17 17 17 17 17 17 17 17 17 17 17 17 17 16 17 16 16 16 16 16 17 17
32 33 32 32 31 30 29 29 29 28 27 27 28 27 26 24 23 21 20 19 18 18 18 17 17 17 17 17 17 17 17 17 17 17 17 17 17 17 16 16 16 16 16 16 16 16 16 16 17
32 32 31 31 30 28 28 28 28 29 28 28 29 28 26 25 23 21 20 19 18 18 18 17 17 17 17 17 17 17 17 17 17 17 17 17 17 17 16 16 16 16 16 16 16 16 16 16 16
32 30 29 28 27 26 26 27 28 30 30 31 30 28 26 25 23 21 20 19 18 18 18 17 17 17 17 17 17 17 17 17 17 17 17 17 17 17 16 16 16 16 16 16 16 16 16 16 16
31 31 28 27 27 25 24 24 26 30 30 31 30 28 26 25 23 22 20 19 18 18 18 17 17 17 17 17 17 17 17 17 17 17 17 17 17 17 17 16 16 16 16 16 16 16 16 16 16
31 31 32 30 29 27 26 25 26 29 29 30 30 28 27 25 24 22 21 19 19 18 18 17 17 17 17 17 17 17 17 17 17 17 17 17 17 17 17 17 16 16 16 16 16 16 16 16 16
32 32 31 30 28 27 27 26 25 25 28 29 29 28 27 26 24 22 21 20 19 18 18 17 17 17 17 17 17 17 17 17 17 17 17 17 17 17 17 17 16 16 16 16 16 16 16 16 16
31 31 30 30 30 28 26 25 25 25 26 28 29 28 27 26 25 23 21 20 19 18 18 17 17 17 17 17 17 17 17 17 17 17 17 17 17 17 17 16 16 16 16 16 16 16 16 16 16
32 31 30 29 28 29 28 26 26 25 26 28 29 28 27 26 25 23 22 20 19 19 18 18 17 17 17 17 17 17 17 17 17 17 17 17 17 17 17 16 16 16 16 16 16 16 16 16 15
Wind_Speed
11 14 12 7 4 5 3 7 10 10 11 11 9 8 11 13 9 7 9 17 24 23 21 21 20 19 18 18 17 17 17 16 15 14 14 13 13 13 13 13 13 14 14 14 14 14 14 14 13
12 15 11 5 5 4 3 7 10 10 9 6 6 8 12 13 12 11 13 19 24 23 21 20 20 19 19 18 17 17 17 16 15 14 14 13 13 13 13 13 13 13 13 14 14 14 14 13 13
13 18 8 6 8 4 5 7 8 7 7 5 5 8 10 9 10 10 16 21 23 21 20 22 21 20 19 18 18 17 17 16 15 14 13 13 13 13 13 13 13 13 13 13 13 13 13 12 11
9 9 5 7 9 3 6 6 5 5 5 4 5 6 9 8 6 13 18 20 22 21 21 22 21 20 19 18 18 17 16 16 15 14 14 13 13 13 13 13 13 13 13 13 13 12 12 11 10
11 6 7 10 9 3 5 5 4 4 3 4 5 9 9 7 10 17 17 21 22 21 21 22 21 20 19 18 18 17 16 15 15 14 13 13 13 13 13 12 12 12 12 12 12 12 11 10 8
9 8 9 8 7 2 4 4 2 3 3 2 3 8 7 9 10 15 17 18 21 21 20 21 21 20 19 18 17 17 16 15 15 14 13 13 13 13 13 12 12 12 12 12 11 11 10 9 7
11 11 12 12 5 2 4 3 3 2 2 2 3 6 7 9 12 15 16 16 19 22 20 18 19 19 18 18 17 17 16 15 15 14 13 13 13 12 12 12 12 11 11 11 10 10 9 8 6
12 11 14 12 4 2 3 3 3 3 2 3 4 5 7 10 14 16 15 15 17 19 19 17 18 18 17 16 17 17 16 15 14 14 13 13 13 12 12 12 11 10 10 9 9 9 8 7 6
14 11 10 11 5 3 4 5 3 2 1 3 5 6 9 15 16 16 14 14 16 17 17 17 17 16 16 17 17 16 15 15 15 13 13 13 12 13 11 13 11 10 9 9 8 7 7 7 6
11 11 11 9 7 6 6 6 6 4 2 2 6 11 12 14 16 17 16 16 17 17 16 14 16 15 14 14 16 14 13 14 13 12 13 11 9 11 12 14 12 10 9 9 8 7 7 7 7
13 15 13 11 8 8 9 8 6 5 3 1 8 14 15 15 15 15 16 16 17 17 15 14 14 12 11 9 11 9 10 11 11 12 12 10 9 10 12 11 10 10 10 8 8 8 7 6 4
15 15 14 12 11 11 10 9 7 5 3 4 7 14 14 15 14 14 14 13 14 15 15 13 12 9 9 9 7 7 6 6 6 9 9 7 4 4 7 6 8 9 8 6 7 5 3 3 3
14 15 15 13 13 11 10 10 6 4 2 4 7 8 13 12 12 11 11 11 12 13 13 12 11 9 8 7 6 7 6 6 7 8 7 6 3 3 4 3 4 4 6 5 3 2 2 2 2
14 15 14 13 14 13 11 8 3 2 3 3 6 8 9 11 12 11 11 11 11 12 12 12 12 10 8 6 4 4 5 6 8 8 8 7 5 4 3 3 2 2 3 3 2 3 2 1 2
15 17 16 15 15 13 9 6 1 4 5 4 6 8 8 8 10 12 11 11 11 11 12 12 11 11 9 8 6 5 5 7 6 7 8 6 6 6 3 3 2 2 5 4 2 2 2 2 3
18 17 17 15 14 10 9 7 4 8 7 4 6 8 8 8 9 11 11 9 10 11 11 12 12 12 10 7 5 4 4 5 6 8 8 7 7 7 3 3 3 4 4 3 2 2 2 2 2
17 17 17 13 10 10 8 6 5 7 5 5 6 9 9 10 9 9 10 10 10 11 11 11 11 12 10 8 5 3 4 4 5 7 7 7 8 7 4 2 3 3 2 2 2 2 2 2 1
15 14 12 11 8 9 9 7 5 6 5 5 8 9 11 11 10 10 10 11 11 11 11 11 11 11 10 7 5 3 4 4 4 5 6 7 7 7 5 4 4 3 2 2 3 3 2 1 1
18 18 16 12 9 10 12 10 7 5 5 5 8 9 11 12 12 11 11 11 12 11 11 11 11 10 9 7 6 5 5 5 5 5 7 7 7 6 2 3 4 2 2 4 4 3 3 2 1
17 17 17 13 11 12 14 11 5 3 4 5 7 10 12 13 13 13 12 12 12 12 11 11 12 12 10 8 6 5 6 5 5 5 6 7 7 7 5 3 4 3 3 3 2 2 1 3 3
17 16 16 15 14 14 14 11 5 3 3 5 7 9 12 14 14 14 13 12 12 12 12 11 12 12 11 10 7 6 5 5 5 6 5 5 7 6 4 4 2 3 4 4 3 3 2 1 2
16 16 16 16 15 13 11 10 5 5 5 7 8 9 11 13 14 14 13 13 12 12 11 10 11 10 10 10 9 10 8 7 7 6 5 6 6 6 6 5 3 2 2 5 5 4 2 1 2
17 16 15 15 14 14 12 12 6 5 4 6 9 11 11 13 14 14 13 12 12 12 11 11 11 10 10 10 10 9 8 6 6 7 8 6 5 5 6 6 4 3 2 4 2 4 1 2 2
16 16 15 13 12 13 13 12 8 5 8 9 9 12 12 13 14 13 13 12 11 11 10 11 11 11 11 10 10 9 9 8 8 8 8 6 5 5 6 6 4 4 3 4 3 3 3 1 2
15 13 12 12 9 9 10 9 6 5 5 7 10 13 13 13 13 13 13 13 12 12 12 12 12 12 11 11 10 9 9 9 9 9 8 7 6 5 6 6 5 4 3 4 3 3 2 3 1
15 16 13 13 9 5 3 6 6 3 3 6 10 12 13 13 13 13 13 13 12 12 12 12 12 11 12 11 9 8 9 7 7 8 7 7 5 6 8 7 6 5 5 5 4 3 4 2 2
17 16 17 16 15 12 7 6 6 2 3 4 11 13 12 13 14 14 13 13 12 12 11 12 11 11 11 10 9 8 9 8 7 8 7 6 5 7 9 8 7 5 4 3 4 3 3 4 3
17 15 10 11 12 12 7 2 3 5 2 5 8 12 12 13 14 15 14 13 12 12 11 11 11 10 10 9 9 9 8 7 7 7 7 6 6 7 8 8 7 6 5 4 3 3 3 3 3
13 15 13 10 10 11 8 2 2 7 8 4 8 13 13 14 15 15 14 13 13 13 12 11 11 9 9 9 8 8 8 8 7 6 6 6 6 7 8 7 6 6 6 5 4 4 4 4 4
14 14 14 11 11 11 10 2 4 8 8 6 7 12 13 13 14 16 15 14 14 14 13 12 11 11 10 9 9 8 8 8 8 7 7 7 7 7 7 6 6 5 6 5 5 5 4 4 4
Wind_Direction
234 239 233 245 248 253 304 50 57 52 56 49 43 42 53 55 67 98 130 134 125 127 132 133 131 131 129 128 128 128 127 126 124 121 118 116 111 108 106 102 99 98 96 95 95 96 97 96 96
256 254 243 245 254 282 40 57 61 58 60 57 55 54 68 63 76 108 127 127 126 129 136 135 135 133 131 130 130 129 128 128 126 124 122 118 115 112 109 105 102 100 98 97 98 98 99 99 99
262 266 264 242 255 279 58 61 71 77 74 61 59 55 59 70 81 112 127 131 130 133 134 134 138 136 134 132 131 131 131 130 129 128 126 122 118 114 109 105 104 101 100 99 99 100 100 101 103
259 254 254 268 279 349 58 62 63 83 87 65 67 77 69 56 87 117 132 136 131 133 133 138 139 138 137 136 134 134 133 132 131 129 126 123 119 115 111 108 105 104 102 101 100 102 102 103 105
249 258 252 273 288 28 58 57 57 67 76 67 73 93 91 73 98 122 140 138 137 136 134 140 141 140 139 139 138 138 136 135 132 130 127 124 121 119 116 112 109 108 106 105 103 104 106 109 110
261 255 266 285 291 27 72 72 64 66 67 42 77 105 107 120 123 135 145 141 140 135 135 140 142 142 142 142 141 140 139 138 135 132 129 127 123 121 119 117 114 111 110 108 107 107 110 113 116
262 280 282 280 272 61 55 46 47 42 64 42 50 95 117 135 138 144 145 139 137 136 137 144 146 145 144 145 144 144 142 139 138 136 132 130 128 125 123 121 119 115 115 115 113 113 115 119 126
263 283 297 296 304 44 51 15 29 359 31 69 42 87 141 150 146 143 143 140 135 137 142 148 150 149 149 149 149 148 146 144 143 141 140 139 137 136 135 131 125 123 123 124 124 123 126 134 145
264 271 285 294 317 355 4 342 339 341 18 71 67 82 139 143 147 146 146 143 139 142 146 154 152 154 156 154 151 151 151 151 149 151 154 155 157 150 150 133 135 134 135 137 140 144 150 157 170
248 261 270 296 333 333 330 319 310 307 313 102 109 112 140 151 155 158 159 157 152 151 153 154 153 158 160 155 149 155 159 160 167 164 170 180 167 151 140 139 145 148 150 154 162 170 180 192 187
249 264 282 302 317 315 309 304 303 307 314 54 139 147 157 157 162 166 165 166 160 157 152 155 153 157 156 142 152 159 159 164 177 167 177 177 155 144 139 149 155 165 171 178 168 190 207 196 184
252 271 284 292 302 298 296 299 308 330 1 53 115 144 157 161 167 170 167 166 158 155 149 152 148 147 139 140 151 154 151 161 163 162 176 158 154 146 144 154 167 176 176 173 177 196 180 145 152
255 263 272 280 285 284 286 283 290 336 10 100 118 142 155 159 165 166 162 160 153 153 150 149 145 140 134 132 154 157 147 161 152 153 162 155 157 135 128 130 141 163 156 169 168 143 127 131 124
276 278 280 280 279 276 275 285 304 318 277 138 136 142 153 164 165 160 158 159 158 155 149 144 140 139 137 139 147 143 152 151 151 153 158 165 150 135 122 124 121 124 113 103 105 111 118 123 110
275 277 277 273 266 262 273 281 195 231 226 183 144 139 142 150 157 158 158 156 159 156 147 143 145 146 149 152 159 158 159 154 146 143 153 152 137 128 129 138 168 133 120 113 122 125 160 169 152
273 268 267 262 256 255 260 274 172 208 211 175 148 143 143 139 155 150 149 152 155 153 151 153 157 153 155 153 160 165 156 141 136 144 145 138 128 138 163 166 147 135 141 154 145 195 166 120 132
262 260 263 264 243 253 263 281 198 201 211 170 155 145 149 147 149 142 148 151 151 152 153 153 150 152 158 156 166 173 145 137 135 140 138 143 146 154 181 128 118 166 165 168 176 130 98 132 142
264 270 273 266 250 262 278 276 233 206 214 181 161 154 154 156 156 150 148 148 149 152 153 151 148 154 157 155 162 164 139 140 133 127 136 151 157 169 172 142 150 197 163 128 86 91 78 109 213
272 285 288 285 285 281 281 274 252 225 206 174 164 158 156 156 150 150 153 152 150 153 154 152 153 157 156 161 169 167 161 159 148 146 152 161 162 162 186 137 158 201 135 133 144 144 164 205 204
268 274 280 285 286 279 281 286 274 247 223 174 181 166 159 154 153 155 158 160 158 161 163 160 164 164 169 175 174 172 161 168 157 146 152 162 158 166 171 129 173 148 131 128 137 126 193 222 173
265 268 274 281 283 281 284 282 276 229 214 184 191 174 160 159 160 159 163 166 164 166 171 172 169 168 175 174 166 164 155 162 148 150 163 159 161 167 134 145 155 148 169 153 175 183 209 249 181
262 265 270 277 280 281 289 282 241 214 212 201 195 169 163 158 157 158 163 168 170 170 172 169 169 171 173 169 169 168 170 170 163 160 154 158 166 161 152 157 145 167 167 147 190 183 202 247 254
266 272 274 276 280 281 283 279 248 178 207 211 192 160 165 159 157 159 166 168 168 169 171 171 170 174 177 178 177 175 173 168 157 148 149 164 167 162 156 152 151 175 186 150 148 125 185 273 269
260 268 271 272 274 271 272 272 268 195 184 189 169 153 159 153 152 156 161 163 166 167 168 170 170 175 179 181 182 182 175 167 157 157 161 171 164 170 162 156 161 177 171 139 147 145 189 268 341
241 248 259 255 248 260 306 286 260 161 161 158 149 150 152 150 152 156 158 163 166 168 170 170 172 176 179 182 183 182 175 169 164 166 172 174 168 169 168 162 163 174 145 150 164 166 221 198 219
247 242 248 266 271 273 314 283 289 112 126 143 141 141 145 152 154 157 160 161 166 168 168 169 171 174 177 180 180 175 173 174 175 177 171 182 176 164 156 152 165 172 170 177 168 184 199 191 204
249 250 253 260 265 265 224 221 246 190 155 147 138 141 150 157 155 156 157 160 163 166 166 163 163 168 172 174 172 172 176 177 172 168 174 177 167 153 154 160 168 174 179 175 160 217 202 163 198
240 254 261 266 278 283 276 244 341 303 235 161 154 150 151 155 155 153 154 159 159 161 159 157 157 162 167 167 172 175 176 170 164 170 178 172 163 146 154 163 167 171 174 178 193 212 191 184 214
227 240 255 271 272 277 283 268 196 258 284 222 172 155 155 158 155 154 155 156 155 157 161 162 159 160 167 172 175 171 171 168 165 175 170 165 153 152 159 164 169 177 179 183 195 227 190 201 218
246 236 238 250 267 276 282 257 227 238 246 229 172 149 150 152 151 152 153 154 158 162 165 166 164 167 172 172 171 169 166 166 169 172 163 159 158 161 162 169 176 190 189 184 193 220 213 208 216
Height
1489 1488 1488 1491 1490 1490 1480 1465 1460 1462 1464 1467 1468 1468 1470 1474 1482 1494 1493 1494 1495 1497 1501 1505 1509 1511 1514 1517 1519 1522 1524 1526 1528 1529 1531 1533 1534 1536 1537 1538 1539 1540 1541 1542 1543 1544 1545 1546 1547
1488 1489 1491 1488 1489 1490 1478 1463 1463 1464 1467 1469 1469 1470 1472 1478 1482 1488 1492 1495 1496 1498 1502 1506 1509 1512 1515 1518 1520 1523 1525 1527 1529 1531 1533 1535 1536 1537 1539 1540 1541 1542 1543 1544 1545 1546 1547 1548 1549
1488 1489 1490 1483 1483 1479 1472 1462 1462 1464 1467 1469 1470 1472 1475 1481 1485 1488 1492 1495 1497 1500 1503 1507 1510 1513 1516 1519 1521 1524 1526 1528 1531 1533 1534 1536 1538 1539 1541 1542 1543 1544 1545 1546 1547 1548 1549 1550 1552
1490 1489 1486 1480 1477 1462 1459 1459 1461 1463 1467 1469 1470 1474 1480 1484 1486 1489 1492 1496 1498 1501 1504 1507 1511 1514 1517 1519 1522 1525 1527 1530 1532 1534 1536 1537 1539 1541 1542 1543 1545 1546 1547 1548 1549 1550 1551 1552 1554
1491 1487 1485 1481 1469 1456 1454 1458 1461 1464 1466 1468 1470 1475 1483 1486 1487 1489 1493 1496 1499 1502 1504 1508 1512 1515 1518 1520 1523 1526 1528 1531 1533 1535 1537 1539 1540 1542 1544 1545 1546 1547 1548 1550 1551 1552 1553 1554 1555
1489 1481 1484 1482 1468 1455 1454 1458 1461 1463 1466 1468 1470 1475 1482 1485 1487 1490 1494 1497 1500 1502 1505 1508 1512 1515 1518 1521 1524 1527 1529 1532 1534 1536 1538 1540 1542 1544 1545 1546 1548 1549 1550 1551 1552 1554 1555 1556 1557
1487 1479 1479 1473 1464 1458 1456 1458 1460 1462 1465 1468 1470 1475 1483 1486 1487 1490 1494 1498 1500 1502 1505 1509 1512 1516 1519 1522 1525 1528 1530 1533 1535 1537 1539 1541 1543 1545 1546 1548 1549 1550 1552 1553 1554 1555 1556 1557 1559
1483 1478 1476 1467 1461 1459 1455 1457 1460 1462 1464 1467 1470 1477 1482 1485 1487 1490 1494 1498 1500 1503 1505 1508 1512 1516 1519 1522 1525 1528 1531 1534 1536 1538 1541 1542 1544 1546 1547 1549 1550 1552 1553 1554 1555 1557 1558 1559 1560
1481 1480 1480 1468 1460 1457 1455 1457 1459 1461 1463 1466 1471 1475 1480 1483 1486 1490 1493 1497 1500 1503 1505 1509 1512 1515 1519 1522 1525 1529 1532 1534 1537 1539 1542 1543 1545 1547 1548 1550 1551 1553 1554 1555 1557 1558 1559 1560 1561
1477 1477 1471 1458 1454 1455 1455 1457 1458 1459 1462 1466 1471 1475 1478 1482 1485 1488 1491 1495 1499 1502 1505 1509 1512 1516 1520 1523 1526 1529 1532 1535 1537 1540 1542 1544 1546 1548 1550 1551 1552 1554 1555 1556 1558 1559 1560 1561 1562
1471 1468 1461 1457 1455 1456 1456 1456 1456 1457 1460 1464 1468 1472 1476 1480 1484 1487 1490 1493 1497 1500 1504 1508 1511 1515 1519 1523 1526 1529 1533 1535 1538 1541 1543 1545 1547 1549 1550 1552 1553 1554 1555 1557 1558 1559 1560 1562 1564
1467 1463 1459 1457 1456 1456 1455 1455 1456 1457 1461 1463 1466 1470 1474 1478 1482 1485 1489 1493 1495 1498 1502 1507 1511 1514 1518 1522 1526 1530 1533 1535 1538 1541 1543 1546 1548 1550 1551 1552 1553 1555 1556 1558 1559 1560 1561 1562 1564
1463 1461 1459 1457 1456 1454 1454 1453 1455 1459 1462 1463 1466 1470 1474 1477 1480 1484 1487 1491 1494 1498 1501 1506 1510 1514 1518 1521 1526 1530 1532 1535 1538 1540 1543 1545 1548 1550 1551 1553 1554 1555 1557 1558 1559 1560 1561 1562 1564
1461 1457 1456 1455 1453 1452 1451 1451 1454 1460 1461 1463 1465 1469 1473 1476 1479 1482 1486 1490 1493 1496 1500 1504 1509 1513 1517 1521 1524 1529 1531 1535 1537 1540 1542 1545 1546 1549 1551 1552 1554 1555 1557 1558 1559 1560 1561 1562 1564
1461 1458 1456 1453 1450 1448 1449 1453 1454 1459 1460 1461 1464 1468 1472 1475 1478 1481 1485 1488 1491 1494 1498 1502 1507 1512 1516 1520 1524 1527 1530 1533 1536 1539 1541 1544 1545 1547 1550 1552 1553 1555 1556 1557 1559 1560 1561 1562 1564
1459 1459 1461 1451 1446 1444 1449 1457 1452 1456 1456 1458 1462 1467 1471 1475 1478 1481 1484 1487 1490 1492 1495 1500 1505 1510 1514 1518 1522 1526 1530 1533 1535 1538 1541 1543 1544 1547 1549 1551 1552 1554 1556 1557 1558 1559 1561 1562 1563
1461 1463 1459 1449 1442 1440 1443 1450 1448 1450 1452 1455 1460 1465 1470 1475 1478 1481 1484 1486 1489 1491 1494 1498 1503 1508 1512 1516 1521 1525 1528 1531 1534 1537 1539 1541 1543 1546 1548 1550 1551 1553 1555 1557 1558 1559 1560 1562 1563
1464 1457 1453 1450 1440 1439 1442 1444 1443 1446 1448 1452 1458 1463 1468 1473 1477 1480 1483 1485 1487 1490 1493 1497 1502 1506 1511 1515 1519 1523 1526 1530 1533 1536 1538 1540 1543 1545 1547 1549 1551 1553 1555 1556 1557 1558 1560 1561 1563
1452 1452 1452 1444 1436 1440 1441 1440 1440 1442 1445 1450 1455 1460 1466 1471 1475 1479 1482 1485 1487 1489 1492 1496 1500 1504 1508 1513 1517 1521 1524 1528 1531 1534 1537 1540 1542 1544 1546 1548 1550 1552 1553 1555 1556 1558 1559 1561 1562
1450 1452 1450 1442 1436 1438 1439 1439 1437 1441 1444 1449 1453 1457 1462 1468 1473 1477 1480 1483 1486 1488 1492 1495 1499 1503 1507 1511 1516 1520 1524 1527 1530 1533 1536 1538 1541 1543 1545 1547 1549 1550 1552 1554 1556 1557 1559 1561 1562
1450 1451 1449 1446 1439 1435 1440 1445 1443 1440 1444 1448 1451 1454 1459 1464 1469 1474 1478 1482 1485 1488 1491 1494 1497 1502 1506 1510 1515 1519 1523 1526 1529 1532 1534 1537 1540 1542 1544 1546 1548 1550 1551 1553 1554 1556 1558 1560 1561
1452 1441 1441 1442 1446 1448 1445 1460 1448 1443 1446 1448 1450 1452 1456 1462 1467 1472 1476 1480 1483 1486 1489 1493 1496 1500 1504 1508 1512 1516 1520 1523 1526 1530 1533 1536 1538 1540 1542 1544 1546 1548 1550 1552 1554 1555 1557 1558 1560
1442 1436 1437 1440 1445 1451 1449 1457 1448 1442 1447 1448 1446 1449 1454 1459 1465 1470 1475 1478 1482 1485 1488 1491 1495 1498 1502 1506 1510 1515 1518 1522 1525 1529 1532 1534 1536 1539 1541 1543 1545 1547 1549 1551 1552 1554 1556 1557 1559
1435 1438 1439 1441 1448 1466 1456 1459 1453 1440 1440 1440 1441 1446 1452 1458 1463 1469 1473 1477 1480 1483 1486 1489 1493 1496 1500 1504 1509 1513 1516 1520 1523 1527 1530 1532 1535 1537 1540 1542 1544 1546 1548 1549 1551 1552 1554 1556 1557
1435 1448 1462 1466 1470 1472 1460 1461 1449 1431 1429 1431 1436 1443 1450 1456 1462 1467 1472 1475 1478 1481 1484 1487 1490 1494 1498 1502 1506 1510 1514 1518 1521 1524 1528 1531 1533 1536 1538 1541 1543 1545 1547 1548 1550 1551 1553 1555 1556
1434 1441 1462 1474 1473 1473 1470 1473 1450 1427 1428 1430 1434 1441 1448 1455 1460 1465 1470 1473 1476 1480 1483 1485 1489 1492 1496 1500 1504 1508 1512 1516 1520 1523 1526 1529 1532 1535 1537 1539 1542 1544 1546 1548 1549 1551 1552 1553 1555
1436 1435 1431 1443 1451 1460 1462 1458 1444 1431 1430 1431 1434 1440 1447 1453 1458 1464 1468 1472 1475 1478 1481 1484 1487 1490 1494 1498 1502 1506 1510 1514 1518 1521 1525 1528 1531 1534 1536 1538 1540 1542 1545 1547 1548 1550 1551 1552 1553
1424 1427 1433 1443 1459 1464 1457 1459 1457 1447 1436 1432 1434 1439 1445 1451 1456 1462 1467 1471 1475 1478 1481 1484 1487 1490 1494 1497 1501 1505 1508 1512 1516 1520 1523 1527 1530 1533 1534 1537 1539 1541 1543 1545 1547 1548 1550 1551 1552
1426 1430 1433 1435 1438 1455 1465 1465 1445 1445 1439 1435 1434 1437 1443 1448 1454 1460 1466 1470 1474 1477 1480 1484 1486 1490 1493 1496 1500 1504 1508 1511 1515 1518 1522 1525 1528 1531 1533 1536 1538 1540 1542 1544 1545 1547 1549 1549 1550
1417 1422 1428 1444 1445 1440 1448 1457 1436 1437 1436 1434 1434 1436 1441 1447 1452 1458 1464 1469 1473 1477 1480 1483 1486 1489 1492 1496 1499 1503 1506 1510 1514 1517 1520 1524 1527 1529 1532 1535 1537 1539 1541 1543 1544 1545 1547 1548 1549